PEGASUS DEB, 24378

Orbit data source: Space-Track

PEGASUS DEB, 24378 is space debris in LEO originally from a launch on Thu, 19 May 1994 UTC launched from the Air Force Western Test Range (AFWTR). Debris objects in space refer to the collection of defunct objects orbiting the Earth. Examples of debris include non-operational satellites, rocket bodies, and fragments generated from explosions, collisions, or faulty payload assembly.

Loading next visibility...
Identifier
24378, 1994-029QF
Orbit
LEO
Country
Flag of USUS
Related business
Manufacturer
Unknown
Mission
Spacecraft
Bus & Motor
Unknown
Mass
Unknown
Launch date (UTC)
1994-05-19 (32 years ago)
Launch vehicle
Unknown
Launch site
Air Force Western Test Range (AFWTR)
Object type
Payload
Rocket body
Debris
Shape & HBR
Unknown shape, 0.1 m
Radar Cross Section
Small (<0.1 m²)

Expand to show TLE details & history
Last TLE update: 12 hours ago

TLE from 12 hours ago
0 PEGASUS DEB
1 24378U 94029QF  26063.27682685  .00001264  00000-0  22133-3 0  9996
2 24378  82.0346 350.4322 0160453 169.7255 190.7294 14.58950043683369
Epoch: 2026-03-04T06:38Z
TLE epoch observation values (Epoch: 2026-03-04T06:38:37.839Z)
Latitude
-0.00004°
Longitude
88.73068°
Altitude
811.175 km
Speed
7.389 km/s
True Right ascension
23h 21m 43s
True Declination
0° 00' 00"
Sunlit
Object was in daylight at epoch
Visualization orbit readout
Latitude
Unknown
Longitude
Unknown
Altitude
Unknown
Speed
Unknown
Apparent Right ascension
Unknown
Apparent Declination
Unknown
Sunlit
N/A
Visualization observer readout
Local Sidereal Time
22:45:26
Azimuth
Unknown
Elevation
Unknown
Doppler factor
Unknown
Orbital elements
Apogee altitude
807.106 km
Perigee altitude
580.168 km
Semi-major axis
7,071.774 km
Eccentricity
0.01605
Inclination
82.0346°
RAAN
350.4322°
Arg. of periapsis
169.7255°
True anomaly
190.39372°
Mean anomaly
190.7294°
Eccentric anomaly
190.56091°
Mean motion
3.64964 °/min
Orbital period
98.64 mins
BSTAR
0.00022133
Loading maneuver chart data...
Computing Atmospheric mass density...

Documentation

Showing up to 5 results
|